TimeWGST,TemperatureF,Dew PointF,Humidity,Sea Level PressureIn,VisibilityMPH,Wind Direction,Wind SpeedMPH,Gust SpeedMPH,PrecipitationIn,Events,Conditions,WindDirDegrees,DateUTC
1:00 AM,39,38,93,30.02,4,Calm,Calm,,,,Overcast,,2013-09-26 03:00:00
3:50 AM,39.2,37.4,93,29.98,6.2,East,3.5,-,N/A,,Mostly Cloudy,100,2013-09-26 05:50:00
4:00 AM,39,36,87,29.99,6,NE,2.3,,,,Overcast,50,2013-09-26 06:00:00
4:50 AM,39.2,35.6,87,29.98,6.2,NE,4.6,-,N/A,,Mostly Cloudy,40,2013-09-26 06:50:00
5:50 AM,37.4,35.6,93,29.98,6.2,ESE,2.3,-,N/A,,Mostly Cloudy,110,2013-09-26 07:50:00
6:50 AM,37.4,35.6,93,29.98,6.2,South,1.2,-,N/A,,Mostly Cloudy,190,2013-09-26 08:50:00
7:00 AM,38,35,86,29.98,31,SSW,2.3,,,,Overcast,200,2013-09-26 09:00:00
7:50 AM,37.4,35.6,93,29.98,6.2,South,3.5,-,N/A,,Mostly Cloudy,180,2013-09-26 09:50:00
8:50 AM,37.4,35.6,93,29.98,6.2,ESE,2.3,-,N/A,,Mostly Cloudy,120,2013-09-26 10:50:00
9:50 AM,37.4,35.6,93,29.98,6.2,North,2.3,-,N/A,,Mostly Cloudy,360,2013-09-26 11:50:00
10:00 AM,38,35,84,30.00,28,NNW,2.3,,,,Overcast,340,2013-09-26 12:00:00
10:50 AM,39.2,35.6,87,29.98,6.2,WSW,2.3,-,N/A,,Mostly Cloudy,250,2013-09-26 12:50:00
11:50 AM,37.4,35.6,93,30.01,6.2,WSW,5.8,-,N/A,,Mostly Cloudy,240,2013-09-26 13:50:00
12:50 PM,41.0,35.6,81,30.01,6.2,West,4.6,-,N/A,Fog,Patches of Fog,270,2013-09-26 14:50:00
1:00 PM,41,35,73,30.01,19,West,4.6,,,,,260,2013-09-26 15:00:00
1:50 PM,41.0,35.6,81,30.01,0.7,West,5.8,-,N/A,Fog,Fog,260,2013-09-26 15:50:00
2:50 PM,42.8,35.6,76,30.01,6.2,NW,3.5,-,N/A,Fog,Partly Cloudy,310,2013-09-26 16:50:00
3:50 PM,44.6,37.4,76,30.01,6.2,West,4.6,-,N/A,,Clear,280,2013-09-26 17:50:00
4:00 PM,44,36,64,30.01,22,West,4.6,,,,,280,2013-09-26 18:00:00
4:50 PM,42.8,37.4,81,30.01,6.2,WNW,4.6,-,N/A,,Clear,290,2013-09-26 18:50:00
5:50 PM,41.0,35.6,81,30.01,6.2,Variable,2.3,-,N/A,,Clear,0,2013-09-26 19:50:00
6:50 PM,41.0,35.6,81,30.04,6.2,NNE,2.3,-,N/A,,Partly Cloudy,30,2013-09-26 20:50:00
7:00 PM,41,35,73,30.05,31,NE,1.2,,,,Mostly Cloudy,40,2013-09-26 21:00:00
7:50 PM,39.2,35.6,87,30.04,6.2,ESE,3.5,-,N/A,,Scattered Clouds,110,2013-09-26 21:50:00
8:50 PM,35.6,32.0,87,30.04,6.2,ENE,2.3,-,N/A,,Scattered Clouds,60,2013-09-26 22:50:00
9:50 PM,37.4,33.8,87,30.04,6.2,East,4.6,-,N/A,,Scattered Clouds,80,2013-09-26 23:50:00
10:00 PM,40,35,75,30.05,28,East,4.6,,,,Partly Cloudy,80,2013-09-27 00:00:00